Simultaneous Nadir Overpasses (SNOs) Predictions

Prediction of SNOs near equator between AQUA and NPP Satellite Orbit:

Table of predicted SNOs near equator for the next 14.0 days since TLE Epoch: 6/8/2017
Index Date (AQUA) Time (AQUA) AQUA Lat,Lon Date (NPP) Time (NPP) NPP Lat,Lon Distance(km) Time Diff (sec)
1 06/09/2017 07:59:26 29.94, 79.26 06/09/2017 07:49:26 30.58, 78.73 87.60 600
2 06/09/2017 08:41:21 -3.00,-106.91 06/09/2017 08:32:15 -2.92,-107.24 37.40 546
3 06/09/2017 09:29:36 -1.62, 61.69 06/09/2017 09:21:45 -1.75, 61.10 67.03 471
4 06/09/2017 10:17:43 6.13,-129.69 06/09/2017 10:11:08 6.30,-130.55 96.54 395
5 06/12/2017 00:09:16 5.94,-159.32 06/11/2017 23:59:20 5.89,-159.47 17.33 596
6 06/12/2017 00:57:23 -1.43, 9.30 06/12/2017 00:48:43 -1.34, 8.89 47.34 520
7 06/12/2017 01:45:38 -3.19, 177.90 06/12/2017 01:38:13 -3.33, 177.23 76.83 445
8 06/14/2017 16:25:17 4.38, -43.10 06/14/2017 16:15:48 4.30, -43.34 27.27 570
9 06/14/2017 17:13:24 0.13, 125.52 06/14/2017 17:05:10 0.25, 125.02 57.30 494
10 06/14/2017 18:01:39 -4.75, -65.88 06/14/2017 17:54:40 -4.92, -66.64 86.57 419
11 06/17/2017 07:59:18 -29.95,-100.72 06/17/2017 07:49:18 -30.40,-101.20 68.13 600
12 06/17/2017 08:41:18 2.76, 73.13 06/17/2017 08:32:15 2.72, 72.79 37.27 543
13 06/17/2017 09:29:25 1.75,-118.26 06/17/2017 09:21:37 1.89,-118.84 67.19 468
14 06/17/2017 10:17:41 -6.31, 50.34 06/17/2017 10:11:08 -6.50, 49.49 96.25 393
15 06/20/2017 00:09:04 -5.77, 20.75 06/19/2017 23:59:12 -5.75, 20.59 17.52 592
16 06/20/2017 00:57:20 1.21,-170.66 06/20/2017 00:48:43 1.14,-171.08 47.22 517
17 06/20/2017 01:45:26 3.36, -2.03 06/20/2017 01:38:05 3.47, -2.71 77.14 441
18 06/22/2017 16:25:05 -4.16, 136.98 06/22/2017 16:15:39 -4.11, 136.74 27.41 566
19 06/22/2017 17:13:21 -0.39, -54.44 06/22/2017 17:05:10 -0.50, -54.94 57.19 491
20 06/22/2017 18:01:27 4.96, 114.20 06/22/2017 17:54:32 5.11, 113.43 86.84 415




NCC Satellite Simultaneous Nadir Overpasses (SNOs) Prediction Service
